Location: Gro�sch�nbrunn
(49.5760°N, 11.8868°E)
Time: 15:55:20
(UTC+00:00)

ISS - Pass Details

Date: 03 December 2020
Orbit: 418 x 419 km, 51.6° (Epoch: 17 January)

Event Time Altitude Azimuth Distance (km) Brightness Sun altitude
Rises 16:20:04 0° 283° (WNW) 2,367 1.1 -10.2°
Reaches altitude 10° 16:22:11 10° 286° (WNW) 1,502 -0.1 -10.5°
Maximum altitude 16:25:32 65° 9° (N) 465 -3.7 -11.0°
Enters shadow 16:28:00 17° 90° (E) 1,152 -2.1 -11.4°
